Challis, ID

10:50 PM MDT on September 19, 2017 (GMT -0600)
Challis

Weather History for KLLJ - February, 2012

Change the Weather History Date:

Saturday, February 4, 2012

  Actual Average Record
Temperature  
Mean Temperature 20 °F 22 °F  
Max Temperature 34 °F 32 °F 54 °F (1963)
Min Temperature 6 °F 11 °F -24 °F (1989)
Degree Days  
Heating Degree Days 45 43  
Month to date heating degree days 165 175  
Since 1 July heating degree days 4605 5097  
Cooling Degree Days 0 0  
Month to date cooling degree days 0 0  
Year to date cooling degree days 0 0  
Moisture  
Dew Point 10 °F    
Average Humidity 67    
Maximum Humidity 91    
Minimum Humidity 43    
Precipitation  
Precipitation 0.00 in 0.03 in 0.28 in (1950)
Month to date precipitation 0.02 0.10  
Year to date precipitation 0.20 0.61  
Sea Level Pressure  
Sea Level Pressure 30.54 in    
Wind  
Wind Speed 1 mph (SW)    
Max Wind Speed 6 mph    
Max Gust Speed 7 mph    
Visibility 10 miles    
Events      
T = Trace of Precipitation, MM = Missing Value Source: NWS Daily Summary

Daily Weather History Graph

Daily Weather History Graph

Search for Another Location

Airport or City:

Trip Planner

Search our weather history database for the weather conditions in past years. The results will help you decide how hot, cold, wet, or windy it might be!

Date:

Astronomy

Feb. 04, 2012 Rise Set
Actual Time 7:52 AM MST 5:49 PM MST
Civil Twilight 7:21 AM MST 6:20 PM MST
Nautical Twilight 6:47 AM MST 6:55 PM MST
Astronomical Twilight 6:13 AM MST 7:29 PM MST
Moon 2:46 PM MST (2/4) 5:26 AM MST (2/4)
Length of Visible Light 10h 58m
Length of Day
9h 57m
Waxing Gibbous, 89% of the Moon is Illuminated
Feb 4
Waxing Gibbous
Feb 7
Full
Feb 14
Last Quarter
Feb 21
New
Feb 29
First Quarter

Hourly Weather History & Observations

Time (MST) Temp. Windchill Dew Point Humidity Pressure Visibility Wind Dir Wind Speed Gust Speed Precip Events Conditions
12:55 AM 16.0 °F 8.8 °F 10.0 °F 77% 30.50 in 10.0 mi SSE 4.6 mph - N/A   Clear
1:55 AM 10.9 °F - 7.0 °F 84% 30.51 in 10.0 mi Calm Calm - N/A   Clear
2:55 AM 12.0 °F - 9.0 °F 88% 30.51 in 10.0 mi Calm Calm - N/A   Clear
3:55 AM 12.0 °F - 9.0 °F 88% 30.52 in 10.0 mi Calm Calm - N/A   Clear
4:55 AM 8.1 °F - 6.1 °F 92% 30.55 in 10.0 mi Calm Calm - N/A   Clear
5:55 AM 10.0 °F - 6.1 °F 84% 30.57 in 10.0 mi Calm Calm - N/A   Clear
6:55 AM 6.1 °F - 3.0 °F 87% 30.63 in 10.0 mi Calm Calm - N/A   Clear
7:55 AM 7.0 °F - 3.9 °F 87% 30.64 in 8.0 mi Calm Calm - N/A   Clear
8:55 AM 12.0 °F - 7.0 °F 80% 30.63 in 10.0 mi Calm Calm - N/A   Clear
9:55 AM 16.0 °F - 9.0 °F 74% 30.63 in 10.0 mi Calm Calm - N/A   Clear
10:55 AM 21.0 °F - 12.0 °F 68% 30.59 in 10.0 mi Calm Calm - N/A   Clear
11:55 AM 24.1 °F - 12.9 °F 62% 30.57 in 10.0 mi Calm Calm - N/A   Clear
12:55 PM 28.0 °F - 12.9 °F 53% 30.52 in 10.0 mi Calm Calm - N/A   Clear
1:55 PM 30.9 °F - 14.0 °F 50% 30.49 in 10.0 mi Calm Calm - N/A   Clear
2:55 PM 34.0 °F - 15.1 °F 46% 30.46 in 10.0 mi Calm Calm - N/A   Clear
3:55 PM 34.0 °F - 14.0 °F 44% 30.44 in 10.0 mi Calm Calm - N/A   Clear
4:55 PM 33.1 °F - 14.0 °F 46% 30.45 in 10.0 mi Calm Calm - N/A   Clear
5:55 PM 24.1 °F 19.7 °F 15.1 °F 69% 30.48 in 10.0 mi West 3.5 mph - N/A   Clear
6:55 PM 24.1 °F 18.2 °F 14.0 °F 65% 30.51 in 10.0 mi SSE 4.6 mph - N/A   Clear
7:55 PM 19.0 °F - 12.0 °F 74% 30.53 in 10.0 mi Calm Calm - N/A   Clear
8:55 PM 19.0 °F - 12.0 °F 74% 30.52 in 10.0 mi Calm Calm - N/A   Clear
9:55 PM 15.1 °F 9.4 °F 10.9 °F 84% 30.53 in 10.0 mi WNW 3.5 mph - N/A   Clear
10:55 PM 14.0 °F - 10.9 °F 88% 30.52 in 10.0 mi Calm Calm - N/A   Clear
11:55 PM 12.9 °F - 9.0 °F 84% 30.52 in 10.0 mi Calm Calm - N/A   Clear